Regional Weather Roundup
Issued by NWS

Home | Current Version | Previous Version | Graphics & Text | Print | Product List | Glossary On
Versions: 1 2 3 4 5 6 7 8 9 10 11 12 13 14 15 16 17 18 19 20 21 22 23 24 25 26 27 28 29 30 31 32 33 34 35 36 37 38 39 40 41 42 43 44 45 46 47 48 49 50
429
ASUS43 KMPX 180510
RWRMN
WEATHER ROUNDUP FOR MINNESOTA
NATIONAL WEATHER SERVICE TWIN CITIES/CHANHASSEN MN
1100 PM CST SUN DEC 17 2017


NOTE: "FAIR" INDICATES FEW OR NO CLOUDS BELOW 12,000 FEET WITH NO
SIGNIFICANT WEATHER AND/OR OBSTRUCTIONS TO VISIBILITY. N/A MEANS
CURRENT SKY AND/OR WEATHER CONDITIONS ARE NOT AVAILABLE.

MNZ060>063-068>070-180600-
   Twin Cities Metro

CITY           SKY/WX    TMP DP  RH WIND       PRES   REMARKS
TWIN CITIES    CLOUDY    27  25  92 SW5       29.96S WCI  22
ST PAUL        CLOUDY    26  24  92 S6        29.97S FOG     WCI  19
CRYSTAL        CLOUDY    26  21  81 S3        29.94S HAZE
BLAINE         CLOUDY    28  27  93 CALM      29.94S FOG
LAKEVILLE      CLOUDY    25  25 100 W3        29.95S FOG
EDEN PRAIRIE   CLOUDY    26  23  88 SW5       29.94S FOG     WCI  20
SOUTH ST PAUL  CLOUDY    27  26  97 S5        29.96R FOG     WCI  22
LAKE ELMO      CLOUDY    28  27  93 S3        29.96S FOG
$$
MNZ001>005-007-008-013>017-022>024-027-028-180600-
   Northwest Minnesota

CITY           SKY/WX    TMP DP  RH WIND       PRES   REMARKS
BEMIDJI        CLOUDY    25  24  97 S6        29.80F WCI  18
HALLOCK        CLOUDY    27  25  93 S21       29.68F WCI  13
ROSEAU         CLOUDY    25  21  86 S13       29.72S WCI  13
WARROAD        CLOUDY    21  19  93 S6        29.72F WCI  14
THIEF RVR FALL CLOUDY    28  27  96 S17       29.76F FOG     WCI  16
CROOKSTON      CLOUDY    30  28  93 S17       29.77F FOG     WCI  18
FOSSTON        CLOUDY    23  23 100 S10       29.80F FOG     WCI  12
DETROIT LAKES  CLOUDY    30  28  93 S9        29.83F FOG     WCI  22
MOORHEAD       PTCLDY    27  25  93 S14       29.82F FOG     WCI  15
PARK RAPIDS    CLOUDY    26  23  88 S8        29.83F FOG     WCI  18
MAHNOMEN       CLOUDY    26  26  97 S12       29.81S FOG     WCI  16
$$
MNZ006-009>011-018-025>026-180600-
   North Central Minnesota

CITY           SKY/WX    TMP DP  RH WIND       PRES   REMARKS
BAUDETTE       CLOUDY    22  20  92 S9        29.74F WCI  12
FLAG ISLAND    CLOUDY    12  10  92 S8        29.70F WCI   1
INTL FALLS     CLOUDY    24  22  91 S7        29.79S FOG     WCI  16
WASKISH        CLOUDY    25  23  93 S5        29.78F WCI  19
BIG FORK       CLOUDY    27  25  93 S8        29.82S WCI  18
LONGVILLE      CLOUDY    27  25  93 S5        29.85F FOG     WCI  21
GRAND RAPIDS   CLOUDY    26  25  96 S7        29.87S WCI  18
CRANE LAKE     CLOUDY    23  21  93 S5        29.84S WCI  17
ORR            CLOUDY    25  21  86 S7        29.80F WCI  17
COOK           CLOUDY    23  21  93 S7        29.84S WCI  15
WALKER         CLOUDY    26  24  93 S6        29.83F WCI  19
$$
MNZ012-019>021-037-180600-
   Northeast Minnesota

CITY           SKY/WX    TMP DP  RH WIND       PRES   REMARKS
DULUTH         CLOUDY    23  21  92 SW10      29.87F WCI  12
ELY            CLOUDY    21  21 100 SW5       29.83F WCI  15
HIBBING        CLOUDY    24  23  96 S7        29.85F WCI  16
EVELETH        CLOUDY    23  20  89 SW6       29.86S WCI  16
DULUTH HARBOR  CLOUDY    27  23  86 SW6       29.93F WCI  20
TWO HARBORS    CLOUDY    28  25  86 SW10      29.87S WCI  19
SILVER BAY     CLOUDY    25  25 100 SW3       29.86F
GRAND MARAIS     N/A     27  22  81 NW6       29.88F WCI  20
G MARAIS ARPRT FOG       18  16  93 CALM      29.81F VSB 1
$$
MNZ029>031-032-039>041-046>048-054>057-064-180600-
   West Central Minnesota

CITY           SKY/WX    TMP DP  RH WIND       PRES   REMARKS
FERGUS FALLS   CLOUDY    25  25 100 S8        29.88F WCI  16
WHEATON        CLOUDY    30  28  93 S6        29.88F WCI  24
MORRIS         CLOUDY    28  27  93 S7        29.87F FOG     WCI  21
ALEXANDRIA     CLOUDY    28  25  88 S8        29.87F FOG     WCI  20
ELBOW LAKE     CLOUDY    27  26  97 S12       29.86F FOG     WCI  17
WADENA         MOCLDY    25  25 100 S3        29.85F FOG
GLENWOOD       CLOUDY    27  25  93 S9        29.88F FOG     WCI  17
APPLETON       CLOUDY    30  27  86 S5        29.89F WCI  25
BENSON         CLOUDY    28  25  86 S7        29.91S FOG     WCI  21
ORTONVILLE     CLOUDY    30  27  86 S5        29.87F WCI  25
MADISON        CLOUDY    34  30  86 S3        29.89S
WILLMAR        MOCLDY    28  27  93 S6        29.91F WCI  22
$$
MNZ033>034-036-042>043-049>051-058-059-180600-
   Central Minnesota

CITY           SKY/WX    TMP DP  RH WIND       PRES   REMARKS
ST CLOUD       CLOUDY    24  21  88 S5        29.91F WCI  18
SAUK CENTRE    CLOUDY    26  24  92 S5        29.89F FOG     WCI  20
PAYNESVILLE    CLOUDY    27  25  90 S6        29.90F WCI  21
AITKIN         CLOUDY    25  19  80 S8        29.87F WCI  16
PINE RIVER     CLOUDY    25  23  93 S7        29.90S FOG     WCI  17
BRAINERD       CLOUDY    24  19  81 S5        29.89F WCI  18
STAPLES        CLOUDY    23  23 100 S5        29.87F FOG     WCI  17
LONG PRAIRIE   CLOUDY    27  23  86 S8        29.89S FOG     WCI  18
LITTLE FALLS   CLOUDY    25  18  74 SE5       29.90F WCI  19
LITCHFIELD     CLOUDY    28  25  86 CALM      29.92F
BUFFALO        CLOUDY    26  22  87 CALM      29.94F
MAPLE LAKE     CLOUDY    26  24  91 CALM      29.93F
HUTCHINSON     CLOUDY    27  26  93 SE3       29.94F FOG
$$
MNZ037-044-045-052-053-180600-
   East Central Minnesota

CITY           SKY/WX    TMP DP  RH WIND       PRES   REMARKS
PRINCETON      CLOUDY    25  21  86 CALM      29.92F
MORA           CLOUDY    18  16  93 CALM      29.94F
CAMBRIDGE      CLOUDY    25  21  86 CALM      29.93F FOG
RUSH CITY      CLOUDY    23  21  93 CALM      29.94F FOG
MOOSE LAKE     CLOUDY    25  21  86 S3        29.89F
HINCKLEY       CLOUDY    23  23 100 CALM      29.93F FOG
CLOQUET        CLOUDY    25  19  80 S6        29.88F WCI  18
MCGREGOR       CLOUDY    27  23  86 S8        29.89F WCI  18
$$
MNZ071>073-080-081-089-090-097-098-180600-
   Southwest Minnesota

CITY           SKY/WX    TMP DP  RH WIND       PRES   REMARKS
MONTEVIDEO     CLOUDY    30  27  86 S5        29.90F WCI  25
GRANITE FALLS  CLOUDY    31  28  86 SE6       29.92S WCI  26
CANBY          CLOUDY    35  30  82 CALM      29.90S
MARSHALL       CLOUDY    32  28  85 SW8       29.91F WCI  25
REDWOOD FALLS  CLOUDY    29  25  85 SE7       29.91F WCI  22
OLIVIA         CLOUDY    30  27  86 S7        29.91F WCI  23
PIPESTONE      CLOUDY    30  27  86 SW7       29.89S WCI  23
WINDOM           N/A     28  18  64 SW8       29.92F HAZE    WCI  20
WORTHINGTON    CLOUDY    28  26  92 SW10      29.92F WCI  19
JACKSON        CLOUDY    27  25  93 SW9       29.93S FOG     WCI  17
TRACY          CLOUDY    34  30  86 SW8       29.90F WCI  27
SLAYTON        CLOUDY    31  28  89 SW8       29.91S WCI  24
$$
MNZ065>067-074>077-082>085-091>093-180600-
   South Central Minnesota

CITY           SKY/WX    TMP DP  RH WIND       PRES   REMARKS
MANKATO        CLOUDY    25  24  96 S3        29.95S FOG
NEW ULM        CLOUDY    27  21  80 S3        29.93F
ST JAMES       CLOUDY    25  23  93 S3        29.95S
FAIRMONT       CLOUDY    22  21  96 SW6       29.95F WCI  14
GLENCOE        CLOUDY    27  27 100 CALM      29.93F FOG
FARIBAULT      CLOUDY    28  27  93 S6        29.94F FOG     WCI  22
OWATONNA       CLOUDY    28  27  93 SW5       29.94F FOG     WCI  23
WASECA         CLOUDY    28  27  93 S5        29.95F FOG     WCI  23
ALBERT LEA     FOG       28  27  93 SW5       29.94F VSB 1/2 WCI  23
$$
MNZ078>079-086>088-094>096-180600-
   Southeast Minnesota

CITY           SKY/WX    TMP DP  RH WIND       PRES   REMARKS
ROCHESTER      CLOUDY    29  28  96 SW8       29.93F FOG     WCI  21
RED WING       CLOUDY    27  25  93 CALM      29.95F FOG
STANTON        CLOUDY    28  26  94 CALM      29.93F FOG
DODGE CENTER   CLOUDY    28  27  93 SW5       29.92F FOG     WCI  23
WINONA         CLOUDY    30  28  93 N3        29.97F FOG
AUSTIN         CLOUDY    27  27 100 SW5       29.94F FOG     WCI  21
PRESTON        CLOUDY    28  27  96 W5        29.94F FOG     WCI  23
$$
ABBREVIATIONS USED IN REMARKS
   TC - TEMPERATURES IN CELSIUS
  WCI - WIND CHILL INDEX
   HX - HEAT INDEX
  VSB - VISIBILITY
$$




USA.gov is the U.S. government's official web portal to all federal, state and local government web resources and services.